Tracking 30402 objects as of 12-May-2025
HD Live streaming from Space Station
objects crossing your sky now

STARLINK-3370

Track STARLINK-3370 now!
10-day predictions
STARLINK-3370 is classified as:


NORAD ID: 51127
Int'l Code: 2022-005Z
Perigee: 546.0 km
Apogee: 547.8 km
Inclination: 53.2 °
Period: 95.4 minutes
Semi major axis: 6917 km
RCS: Unknown
Launch date: January 19, 2022
Source: United States (US)
Launch site: AIR FORCE EASTERN TEST RANGE (AFETR)
Your satellite tracking list
Your tracking list is empty




NASA's NSSDC Master Catalog

Two Line Element Set (TLE):
1 51127U 22005Z   25132.22947613  .00000405  00000-0  43541-4 0  9992
2 51127  53.2163 212.4367 0001261  87.9850 272.1287 15.08838550184342
Source of the keplerian elements: AFSPC